Lawrence, MA

1:18 PM EST on November 22, 2019 (GMT -0500)
Lawrence Municipal

Weather History for KLWM - August, 2019

Change the Weather History Date:

Wednesday, August 28, 2019

  Actual Average Record
Temperature  
Mean Temperature 70 °F -  
Max Temperature 80 °F 82 °F 97 °F (1948)
Min Temperature 62 °F 61 °F 47 °F (1940)
Cooling Degree Days 6    
Growing Degree Days 20 (Base 50)    
Moisture  
Dew Point 60 °F    
Average Humidity 79    
Maximum Humidity 96    
Minimum Humidity 48    
Precipitation  
Precipitation 0.76 in - - ()
Sea Level Pressure  
Sea Level Pressure 29.93 in    
Wind  
Wind Speed 5 mph (East)    
Max Wind Speed 12 mph    
Max Gust Speed 17 mph    
Visibility 8 miles    
Events Rain    
Averages and records for this station are not official NWS values.
T = Trace of Precipitation, MM = Missing Value Source: NWS Daily Summary

Daily Weather History Graph

Daily Weather History Graph

Search for Another Location

Airport or City:

Astronomy

Aug. 28, 2019 Rise Set
Actual Time 6:04 AM EDT 7:26 PM EDT
Civil Twilight 5:35 AM EDT 7:55 PM EDT
Nautical Twilight 4:59 AM EDT 8:30 PM EDT
Astronomical Twilight 4:22 AM EDT 9:07 PM EDT
Moon 3:28 AM EDT (8/28) 6:39 PM EDT (8/28)
Length of Visible Light 14h 20m
Length of Day
13h 21m
Waning Crescent, 5% of the Moon is Illuminated
Aug 28
Waning Crescent
Aug 30
New
Sep 5
First Quarter
Sep 14
Full
Sep 21
Last Quarter

Hourly Weather History & Observations

Time (EDT) Temp. Dew Point Humidity Pressure Visibility Wind Dir Wind Speed Gust Speed Precip Events Conditions
12:54 AM 64.0 °F 55.9 °F 75% 30.04 in 10.0 mi SSW 5.8 mph - N/A   Overcast
1:54 AM 64.0 °F 55.9 °F 75% 30.02 in 10.0 mi SSW 5.8 mph - N/A   Overcast
2:54 AM 64.0 °F 55.9 °F 75% 30.01 in 10.0 mi SSW 4.6 mph - N/A   Overcast
3:54 AM 64.0 °F 55.9 °F 75% 29.99 in 10.0 mi Variable 3.5 mph - N/A   Mostly Cloudy
4:54 AM 63.0 °F 55.9 °F 78% 29.99 in 10.0 mi Calm Calm - N/A   Partly Cloudy
5:54 AM 62.1 °F 55.9 °F 80% 30.00 in 10.0 mi Calm Calm - N/A   Mostly Cloudy
6:54 AM 63.0 °F 57.0 °F 81% 30.01 in 10.0 mi SSW 5.8 mph - N/A   Overcast
7:54 AM 66.0 °F 57.0 °F 73% 29.99 in 10.0 mi SSW 5.8 mph - N/A   Clear
8:54 AM 69.1 °F 55.9 °F 63% 29.99 in 10.0 mi SW 4.6 mph - N/A   Clear
9:54 AM 73.0 °F 57.0 °F 57% 29.99 in 10.0 mi Calm Calm - N/A   Scattered Clouds
10:54 AM 75.0 °F 57.0 °F 53% 29.98 in 10.0 mi Variable 3.5 mph - N/A   Overcast
11:54 AM 75.0 °F 57.9 °F 55% 29.97 in 10.0 mi ESE 5.8 mph - N/A   Overcast
12:54 PM 79.0 °F 57.9 °F 48% 29.94 in 10.0 mi Variable 3.5 mph - N/A   Clear
1:54 PM 77.0 °F 62.1 °F 60% 29.93 in 10.0 mi SE 6.9 mph - N/A   Overcast
2:54 PM 73.0 °F 61.0 °F 66% 29.92 in 10.0 mi ESE 11.5 mph 17.3 mph N/A   Overcast
3:42 PM 70.0 °F 61.0 °F 73% 29.91 in 10.0 mi ESE 6.9 mph - 0.00 in   Overcast
3:54 PM 69.1 °F 62.1 °F 78% 29.91 in 10.0 mi East 4.6 mph - 0.00 in Rain Light Rain
4:54 PM 66.0 °F 62.1 °F 87% 29.91 in 4.0 mi East 6.9 mph - 0.04 in Rain Rain
5:04 PM 64.9 °F 63.0 °F 93% 29.90 in 1.2 mi Calm Calm - 0.09 in Rain Heavy Rain
5:54 PM 66.0 °F 64.0 °F 93% 29.88 in 4.0 mi ENE 4.6 mph - 0.32 in Rain Rain
6:54 PM 66.9 °F 64.9 °F 93% 29.86 in 7.0 mi East 3.5 mph - 0.05 in Rain Light Rain
7:54 PM 66.0 °F 64.0 °F 93% 29.86 in 10.0 mi NE 6.9 mph - 0.03 in Rain Light Rain
8:28 PM 66.0 °F 64.9 °F 96% 29.86 in 10.0 mi NE 4.6 mph - 0.00 in Rain Light Rain
8:54 PM 66.0 °F 64.9 °F 96% 29.86 in 10.0 mi ENE 4.6 mph - 0.00 in   Overcast
9:25 PM 66.0 °F 64.9 °F 96% 29.85 in 2.0 mi NE 4.6 mph - 0.10 in Rain Heavy Rain
9:35 PM 66.0 °F 64.9 °F 96% 29.85 in 6.0 mi ENE 4.6 mph - 0.11 in Rain Light Rain
9:54 PM 66.9 °F 64.9 °F 93% 29.84 in 7.0 mi NE 5.8 mph - 0.12 in Rain Light Rain
10:54 PM 66.0 °F 64.9 °F 96% 29.83 in 5.0 mi North 6.9 mph - 0.04 in Rain Light Rain
11:54 PM 66.0 °F 64.9 °F 96% 29.83 in 3.0 mi North 3.5 mph - 0.16 in Rain Heavy Rain